Key West, FL

9:07 PM EDT on March 24, 2017 (GMT -0400)
Key West International

Weather History for KEYW - February, 2013

Change the Weather History Date:

Tuesday, February 12, 2013

  Actual Average Record
Temperature  
Mean Temperature 78 °F 71 °F  
Max Temperature 81 °F 76 °F 85 °F (1982)
Min Temperature 75 °F 66 °F 51 °F (1973)
Degree Days  
Heating Degree Days 0 1  
Month to date heating degree days 0 12  
Since 1 July heating degree days 5 63  
Cooling Degree Days 13 6  
Month to date cooling degree days 96 72  
Year to date cooling degree days 387 237  
Growing Degree Days 28 (Base 50)    
Moisture  
Dew Point 70 °F    
Average Humidity 76    
Maximum Humidity 82    
Minimum Humidity 69    
Precipitation  
Precipitation T in 0.05 in 1.05 in (1937)
Month to date precipitation T 0.61  
Year to date precipitation 0.29 2.65  
Snow  
Snow 0.00 in - - ()
Month to date snowfall 0.0  
Since 1 July snowfall 0.0  
Snow Depth 0.00 in    
Sea Level Pressure  
Sea Level Pressure 30.07 in    
Wind  
Wind Speed 11 mph (SE)    
Max Wind Speed 17 mph    
Max Gust Speed 24 mph    
Visibility 10 miles    
Events      
T = Trace of Precipitation, MM = Missing Value Source: NWS Daily Summary

Daily Weather History Graph

Daily Weather History Graph

Search for Another Location

Airport or City:

Trip Planner

Search our weather history database for the weather conditions in past years. The results will help you decide how hot, cold, wet, or windy it might be!

Date:

Astronomy

Feb. 12, 2013 Rise Set
Actual Time 7:02 AM EST 6:20 PM EST
Civil Twilight 6:39 AM EST 6:43 PM EST
Nautical Twilight 6:12 AM EST 7:10 PM EST
Astronomical Twilight 5:45 AM EST 7:36 PM EST
Moon 8:21 AM EST (2/12) 8:53 PM EST (2/12)
Length of Visible Light 12h 04m
Length of Day
11h 17m
Waxing Crescent, 7% of the Moon is Illuminated
Feb 12
Waxing Crescent
Feb 17
First Quarter
Feb 25
Full
Mar 4
Last Quarter
Mar 11
New

Hourly Weather History & Observations

Time (EST) Temp. Heat Index Dew Point Humidity Pressure Visibility Wind Dir Wind Speed Gust Speed Precip Events Conditions
12:11 AM 75.2 °F - 68.0 °F 78% 30.11 in 10.0 mi SE 15.0 mph - N/A   Scattered Clouds
12:42 AM 75.2 °F - 68.0 °F 78% 30.11 in 10.0 mi SE 12.7 mph - N/A   Mostly Cloudy
12:49 AM 75.2 °F - 69.8 °F 83% 30.11 in 10.0 mi SE 11.5 mph - N/A   Mostly Cloudy
12:53 AM 75.9 °F - 68.0 °F 76% 30.11 in 10.0 mi SE 12.7 mph - N/A   Mostly Cloudy
1:53 AM 75.9 °F - 68.0 °F 76% 30.10 in 10.0 mi SE 11.5 mph - N/A   Mostly Cloudy
2:25 AM 75.2 °F - 69.8 °F 83% 30.09 in 10.0 mi SE 9.2 mph - N/A   Mostly Cloudy
2:53 AM 75.9 °F - 69.1 °F 79% 30.09 in 10.0 mi SE 10.4 mph - N/A   Mostly Cloudy
3:36 AM 75.2 °F - 69.8 °F 83% 30.08 in 10.0 mi SE 9.2 mph - N/A   Mostly Cloudy
3:44 AM 75.2 °F - 69.8 °F 83% 30.08 in 10.0 mi SE 9.2 mph - N/A   Mostly Cloudy
3:53 AM 75.9 °F - 69.1 °F 79% 30.08 in 10.0 mi SE 10.4 mph - N/A   Mostly Cloudy
4:53 AM 75.9 °F - 69.1 °F 79% 30.08 in 10.0 mi SE 9.2 mph - N/A   Clear
5:53 AM 75.0 °F - 69.1 °F 82% 30.08 in 10.0 mi SE 9.2 mph - N/A   Clear
6:26 AM 75.2 °F - 69.8 °F 83% 30.08 in 10.0 mi SSE 10.4 mph - 0.00 in   Overcast
6:53 AM 75.9 °F - 70.0 °F 82% 30.09 in 10.0 mi SSE 9.2 mph - 0.00 in   Overcast
7:18 AM 75.2 °F - 69.8 °F 83% 30.08 in 9.0 mi SSE 13.8 mph - N/A   Scattered Clouds
7:53 AM 75.9 °F - 70.0 °F 82% 30.09 in 10.0 mi SSE 10.4 mph - N/A   Clear
8:53 AM 78.1 °F - 70.0 °F 76% 30.09 in 10.0 mi SSE 15.0 mph - N/A   Clear
9:53 AM 78.1 °F - 70.0 °F 76% 30.11 in 10.0 mi SSE 16.1 mph - N/A   Clear
10:53 AM 79.0 °F - 70.0 °F 74% 30.11 in 10.0 mi SSE 16.1 mph - N/A   Clear
11:53 AM 79.0 °F - 70.0 °F 74% 30.10 in 10.0 mi SSE 13.8 mph - N/A   Clear
12:53 PM 80.1 °F 83.2 °F 70.0 °F 71% 30.09 in 10.0 mi SSE 12.7 mph - N/A   Clear
1:53 PM 80.1 °F 83.2 °F 70.0 °F 71% 30.06 in 10.0 mi SSE 11.5 mph - N/A   Clear
2:53 PM 80.1 °F 83.6 °F 71.1 °F 74% 30.04 in 10.0 mi SSE 10.4 mph - N/A   Clear
3:53 PM 80.1 °F 83.6 °F 71.1 °F 74% 30.02 in 10.0 mi SE 9.2 mph - N/A   Clear
4:53 PM 79.0 °F - 70.0 °F 74% 30.00 in 10.0 mi SE 8.1 mph - N/A   Clear
5:53 PM 78.1 °F - 70.0 °F 76% 29.99 in 10.0 mi SE 9.2 mph - N/A   Clear
6:53 PM 77.0 °F - 70.0 °F 79% 29.98 in 10.0 mi SE 9.2 mph - N/A   Clear
7:53 PM 77.0 °F - 71.1 °F 82% 30.00 in 10.0 mi ESE 8.1 mph - N/A   Clear
8:53 PM 77.0 °F - 72.0 °F 84% 30.00 in 10.0 mi SE 8.1 mph - N/A   Clear
9:53 PM 77.0 °F - 72.0 °F 84% 30.01 in 10.0 mi SE 9.2 mph - N/A   Mostly Cloudy
10:53 PM 77.0 °F - 72.0 °F 84% 30.03 in 10.0 mi SE 6.9 mph - N/A   Mostly Cloudy
11:53 PM 77.0 °F - 72.0 °F 84% 30.03 in 10.0 mi SE 6.9 mph - N/A   Scattered Clouds